Weather reports worldwide

Advertisment
Ploumanach, France (7117): temperature & dewpoint: 19.09.2018 23:00:00 - 25.09.2018 23:00:00 (CEST)Ploumanach, France (7117): wind speed & gusts: 19.09.2018 23:00:00 - 25.09.2018 23:00:00 (CEST)Ploumanach, France (7117): wind direction: 19.09.2018 23:00:00 - 25.09.2018 23:00:00 (CEST)Ploumanach, France (7117): reduced air pressure: 19.09.2018 23:00:00 - 25.09.2018 23:00:00 (CEST)Ploumanach, France (7117): visibility: 19.09.2018 23:00:00 - 25.09.2018 23:00:00 (CEST)Ploumanach, France (7117): precipitation: 19.09.2018 23:00:00 - 25.09.2018 23:00:00 (CEST)
Date & Time tt [°C] td [°C] ff [km/h] ff [kn] fx [km/h] fx [kn] dd ppp [hPa] vv [km] rr [mm]
25.09.2018 23:00:00 13,6 8,0 14 7 26 14 E 1034,0 - 0,0
25.09.2018 22:00:00 14,2 7,7 16 9 28 15 ENE 1034,1 - 0,0
25.09.2018 21:00:00 13,5 7,0 13 7 26 14 E 1034,1 - 0,0
25.09.2018 20:00:00 14,1 6,7 16 8 30 16 E 1034,2 30 0,0
25.09.2018 19:00:00 14,7 6,3 19 10 33 18 E 1034,1 - 0,0
25.09.2018 18:00:00 15,4 6,7 20 11 34 19 ENE 1034,4 - 0,0
25.09.2018 17:00:00 15,8 7,3 22 12 36 19 ENE 1034,9 30 0,0
25.09.2018 16:00:00 15,8 6,8 28 15 39 21 NE 1035,3 - 0,0
25.09.2018 15:00:00 16,4 6,5 26 14 36 19 NE 1035,8 - 0,0
25.09.2018 14:00:00 17,2 5,5 13 7 19 10 NE 1036,4 30 0,0
25.09.2018 13:00:00 16,3 5,3 11 6 21 11 E 1036,7 - 0,0
25.09.2018 12:00:00 15,9 5,8 10 5 21 11 ESE 1037,3 - 0,0
25.09.2018 11:00:00 14,5 4,8 7 4 18 10 ESE 1037,7 30 0,0
25.09.2018 10:00:00 12,7 4,9 10 6 21 11 SSE 1037,5 - 0,0
25.09.2018 09:00:00 10,7 4,8 12 6 22 12 SSE 1037,1 - 0,0
25.09.2018 08:00:00 9,6 5,0 13 7 22 12 SSE 1036,7 25 0,0
25.09.2018 07:00:00 9,6 5,0 13 7 22 12 SSE 1036,5 - 0,0
25.09.2018 06:00:00 10,1 5,5 11 6 18 10 SSE 1036,8 - 0,0
25.09.2018 05:00:00 10,6 4,9 8 4 18 10 SE 1036,9 - 0,0
25.09.2018 04:00:00 11,3 5,6 11 6 21 11 ESE 1037,0 - 0,0
25.09.2018 03:00:00 11,4 6,1 11 6 29 16 E 1037,6 - 0,0
25.09.2018 02:00:00 12,3 5,9 18 10 33 18 E 1037,2 - 0,0
25.09.2018 01:00:00 12,5 6,5 17 9 30 16 E 1037,9 - 0,0
25.09.2018 00:00:00 13,4 6,7 16 9 37 20 ENE 1037,8 - 0,0
24.09.2018 23:00:00 13,5 6,6 25 14 40 22 NE 1037,7 - 0,0
24.09.2018 22:00:00 13,3 6,2 29 16 38 21 NE 1037,8 - 0,0
24.09.2018 21:00:00 13,2 6,1 26 14 38 20 NE 1037,5 - 0,0
24.09.2018 20:00:00 13,3 6,4 23 12 35 19 NNE 1037,4 - 0,0
24.09.2018 19:00:00 14,1 6,2 23 12 35 19 NE 1037,2 - 0,0
24.09.2018 18:00:00 14,8 7,3 22 12 34 18 NE 1037,3 - 0,0
24.09.2018 17:00:00 15,4 6,4 21 11 33 18 NE 1037,9 35 0,0
24.09.2018 16:00:00 16,1 7,0 22 12 31 17 NE 1038,1 - 0,0
24.09.2018 15:00:00 16,4 6,5 20 11 29 15 NE 1038,0 - 0,0
24.09.2018 14:00:00 16,4 6,8 18 10 31 17 NE 1038,3 20 0,0
24.09.2018 13:00:00 17,0 7,1 15 8 30 16 NE 1038,6 - 0,0
24.09.2018 12:00:00 15,1 7,4 16 9 30 16 NNE 1038,7 - 0,0
24.09.2018 11:00:00 13,5 6,1 21 11 31 17 NNE 1038,5 20 0,0
24.09.2018 10:00:00 14,1 7,2 21 11 33 18 NNE 1037,4 - 0,0
24.09.2018 09:00:00 13,0 5,6 21 12 32 17 NNE 1036,7 - 0,0
24.09.2018 08:00:00 12,6 5,5 23 12 34 19 NE 1036,2 20 0,0
24.09.2018 07:00:00 12,8 5,7 24 13 41 22 NNE 1035,9 - 0,0
24.09.2018 06:00:00 13,0 5,2 25 14 39 21 NE 1035,5 - 0,0
24.09.2018 05:00:00 13,4 5,5 27 14 40 22 NNE 1035,1 - 0,0
24.09.2018 04:00:00 13,3 6,6 24 13 38 20 NNE 1035,0 - 0,0
24.09.2018 03:00:00 12,6 6,4 22 12 35 19 N 1034,5 - 0,0
24.09.2018 02:00:00 12,4 5,5 24 13 37 20 N 1033,9 - 0,0
24.09.2018 01:00:00 12,4 5,8 25 13 41 22 N 1033,5 - 0,0
24.09.2018 00:00:00 12,3 4,8 22 12 39 21 N 1032,9 - 0,0
23.09.2018 23:00:00 12,4 5,1 27 15 44 24 N 1032,1 - 0,0
23.09.2018 22:00:00 12,8 5,5 30 16 44 24 N 1031,1 - 0,0
23.09.2018 21:00:00 12,9 4,8 29 15 43 23 N 1029,8 - 0,0
23.09.2018 20:00:00 12,9 7,8 10 5 29 16 NNW 1028,8 20 0,0
23.09.2018 19:00:00 13,6 7,6 16 9 36 19 N 1027,7 - 0,0
23.09.2018 18:00:00 14,3 8,7 24 13 49 27 N 1026,8 - 0,0
23.09.2018 17:00:00 13,5 7,7 38 21 56 30 N 1025,6 20 0,0
23.09.2018 16:00:00 13,2 9,4 36 20 56 30 N 1024,4 - 0,0
23.09.2018 15:00:00 13,4 10,6 34 18 49 27 N 1022,9 - 0,0
23.09.2018 14:00:00 13,3 11,5 36 19 55 30 N 1021,4 - 0,2
23.09.2018 13:00:00 13,7 13,1 33 18 49 26 N 1019,7 - 0,6
23.09.2018 12:00:00 14,3 13,8 14 8 35 19 WNW 1017,5 - 0,4
23.09.2018 11:00:00 14,2 13,7 23 12 65 35 WNW 1016,0 4,0 1,2
23.09.2018 10:00:00 17,5 17,2 28 15 53 29 WSW 1013,6 - 0,0
23.09.2018 09:00:00 17,7 17,4 31 17 56 30 WSW 1013,2 - 0,2
23.09.2018 08:00:00 17,8 17,6 27 15 51 28 WSW 1013,3 2,0 0,4
23.09.2018 07:00:00 17,9 17,6 29 15 56 30 WSW 1013,5 - 0,2
23.09.2018 06:00:00 17,9 17,6 30 16 48 26 WSW 1013,9 - 0,2
23.09.2018 05:00:00 18,0 17,8 29 15 51 28 WSW 1013,9 - 0,2
23.09.2018 04:00:00 18,1 17,8 29 16 51 28 WSW 1014,4 - 1,0
23.09.2018 03:00:00 18,2 17,9 32 18 61 33 WSW 1014,6 - 0,6
23.09.2018 02:00:00 18,2 17,9 31 17 54 29 WSW 1014,6 - 0,6
23.09.2018 01:00:00 18,4 18,1 34 18 57 31 WSW 1014,6 - 0,6
23.09.2018 00:00:00 18,4 18,1 26 14 49 26 WSW 1014,5 - 1,6
22.09.2018 23:00:00 18,6 18,1 33 18 54 29 WSW 1014,4 - 0,2
22.09.2018 22:00:00 18,6 18,1 32 17 61 33 WSW 1013,9 - 0,2
22.09.2018 21:00:00 18,6 18,1 35 19 66 36 WSW 1013,4 - 0,2
22.09.2018 20:00:00 18,7 18,2 37 20 61 33 WSW 1013,1 - 0,6
22.09.2018 19:00:00 18,8 18,3 38 20 62 33 WSW 1012,7 - 0,4
22.09.2018 18:00:00 18,8 18,3 35 19 65 35 WSW 1012,5 - 0,2
22.09.2018 17:00:00 18,8 18,1 35 19 63 34 SW 1012,5 14 0,4
22.09.2018 16:00:00 18,1 17,3 33 18 69 38 SW 1012,6 - 1,6
22.09.2018 15:00:00 18,0 15,1 36 19 85 46 SSW 1012,5 - 0,0
22.09.2018 14:00:00 16,3 12,8 35 19 62 33 S 1013,6 14 0,0
22.09.2018 13:00:00 14,5 11,8 19 10 39 21 SSE 1015,8 - 0,0
22.09.2018 12:00:00 12,9 11,5 12 6 27 15 ESE 1018,2 - 0,4
22.09.2018 11:00:00 12,9 10,4 10 6 23 13 SE 1019,7 10 0,0
22.09.2018 10:00:00 12,2 9,4 8 5 34 18 SE 1020,4 - 0,4
22.09.2018 09:00:00 12,7 8,8 13 7 26 14 S 1021,0 - 0,0
22.09.2018 08:00:00 12,4 8,9 13 7 22 12 S 1020,7 10 0,0
22.09.2018 07:00:00 12,5 9,1 11 6 18 10 S 1021,4 - 0,0
22.09.2018 06:00:00 12,3 8,9 13 7 20 11 SSW 1021,8 - 0,0
22.09.2018 05:00:00 12,5 8,6 11 6 20 11 SSW 1022,5 - 0,0
22.09.2018 04:00:00 12,7 8,2 13 7 23 13 SSW 1022,4 - 0,0
22.09.2018 03:00:00 12,5 8,6 13 7 19 10 SSW 1022,7 - 0,0
22.09.2018 02:00:00 12,7 9,1 12 7 20 11 SSW 1022,6 - 0,0
22.09.2018 01:00:00 12,9 9,2 10 5 20 11 SW 1023,1 - 0,0
22.09.2018 00:00:00 13,5 8,8 14 8 27 14 SW 1023,0 - 0,0
21.09.2018 23:00:00 13,2 8,7 16 9 27 15 SW 1022,6 - 0,0
21.09.2018 22:00:00 13,6 8,2 17 9 33 18 WSW 1022,3 - 0,0
21.09.2018 21:00:00 13,6 8,4 16 9 37 20 WSW 1021,5 - 0,0
21.09.2018 20:00:00 14,2 7,9 19 10 44 24 WSW 1021,4 15 0,0
21.09.2018 19:00:00 15,5 8,7 23 13 49 26 W 1020,7 - 0,0
21.09.2018 18:00:00 16,8 8,0 27 14 50 27 WSW 1020,0 - 0,0
21.09.2018 17:00:00 16,4 7,6 28 15 50 27 W 1019,9 20 0,0
21.09.2018 16:00:00 16,9 7,5 26 14 48 26 W 1019,7 - 0,0
21.09.2018 15:00:00 14,7 7,7 32 17 59 32 WSW 1019,4 - 0,0
21.09.2018 14:00:00 16,2 7,9 29 15 52 28 W 1018,6 18 0,0
21.09.2018 13:00:00 14,6 9,2 29 15 51 28 W 1018,0 - 0,0
21.09.2018 12:00:00 15,6 6,6 31 17 54 29 W 1017,0 - 0,0
21.09.2018 11:00:00 15,1 7,1 29 16 50 27 W 1016,2 18 0,0
21.09.2018 10:00:00 13,9 7,4 28 15 56 30 W 1015,2 - 0,0
21.09.2018 09:00:00 13,1 6,9 30 16 50 27 W 1014,2 - 0,0
21.09.2018 08:00:00 12,9 7,6 27 14 51 28 W 1013,0 16 0,0
21.09.2018 07:00:00 12,9 7,8 34 19 63 34 W 1011,7 - 0,0
21.09.2018 06:00:00 13,6 8,4 37 20 69 37 W 1010,5 - 0,0
21.09.2018 05:00:00 13,7 8,3 40 21 74 40 W 1009,3 - 0,0
21.09.2018 04:00:00 14,5 10,1 41 22 77 42 W 1008,4 - 0,0
21.09.2018 03:00:00 14,7 11,7 38 20 63 34 WSW 1007,6 - 0,0
21.09.2018 02:00:00 15,0 13,4 34 18 87 47 WSW 1006,6 - 2,2
21.09.2018 01:00:00 17,9 16,9 23 12 59 32 SSW 1004,0 - 3,5
21.09.2018 00:00:00 17,9 16,6 30 16 58 31 SSW 1005,2 - 2,6
20.09.2018 23:00:00 18,4 15,3 29 16 58 32 SW 1006,9 - 0,2
20.09.2018 22:00:00 19,3 14,5 30 16 69 38 SSW 1007,4 - 0,0
20.09.2018 21:00:00 18,8 14,9 32 17 58 32 SW 1008,2 - 0,4
20.09.2018 20:00:00 19,8 15,2 28 15 56 30 SW 1009,1 16 0,0
20.09.2018 19:00:00 20,2 15,2 28 15 53 29 SSW 1009,5 - 0,0
20.09.2018 18:00:00 21,5 14,6 27 15 54 29 SW 1010,3 - 0,0
20.09.2018 17:00:00 22,5 14,1 34 18 59 32 SW 1011,3 18 0,0
20.09.2018 16:00:00 22,7 13,2 36 20 70 38 SW 1011,9 - 0,0
20.09.2018 15:00:00 22,8 13,0 32 17 63 34 SW 1012,5 - 0,0
20.09.2018 14:00:00 22,6 13,4 31 17 58 31 SW 1013,0 18 0,0
20.09.2018 13:00:00 20,9 14,1 21 11 44 24 SW 1014,0 - 0,0
20.09.2018 12:00:00 21,4 14,5 25 13 45 24 SW 1014,1 - 0,0
20.09.2018 11:00:00 19,8 14,4 24 13 45 25 SW 1014,8 - 0,0
20.09.2018 10:00:00 18,4 14,3 22 12 39 21 SW 1015,1 - 0,0
20.09.2018 09:00:00 17,0 13,9 16 9 36 19 SSW 1015,1 - 0,0
20.09.2018 08:00:00 16,8 13,5 19 10 38 20 SW 1015,3 15 0,0
20.09.2018 07:00:00 16,8 13,7 20 11 39 21 SW 1015,6 - 0,0
20.09.2018 06:00:00 16,8 13,9 18 10 39 21 SW 1015,9 - 0,0
20.09.2018 05:00:00 17,2 13,7 18 10 39 21 SW 1016,3 - 0,0
20.09.2018 04:00:00 16,8 13,7 22 12 39 21 SW 1016,3 - 0,0
20.09.2018 03:00:00 16,7 13,8 21 11 37 20 SW 1016,8 - 0,0
20.09.2018 02:00:00 16,8 13,7 18 10 34 18 SW 1016,7 - 0,0
20.09.2018 01:00:00 16,7 14,2 14 7 28 15 SSW 1017,0 - 0,0
20.09.2018 00:00:00 16,8 14,3 14 8 26 14 SSW 1017,4 - 0,0
19.09.2018 23:00:00 17,1 14,4 13 7 22 12 SSW 1017,7 - 0,0

tt = temperature
td = dewpoint
ff = wind speed
fx = gusts
dd = wind direction
ppp = reduced air pressure
vv = visibility
rr = precipitation

Next stations